This demonstration page uses our WeatherBlox Daily Observations layout. Learn more.

Left ArrowRight Arrow

Hourly Observations for October 21, 2020

Temp ( °F °C ) Dew Point ( °F °C ) Humidity (%) Winds ( mph kmh ) Pressure ( in mb ) Visibility ( mi km ) Precip ( " mm )
12:53 am 00:53 Clear 46 7.8 38 3.3 73 73 N 9 15 30.13 1020 10 16 0.00 0.00
3:53 am 03:53 Clear 41 5 36 2.2 82 82 NNW 3 5 30.20 1023 10 16 0.00 0.00
4:53 am 04:53 Clear 43 6.1 37 2.8 80 80 NE 6 9 30.17 1022 10 16 0.00 0.00
6:53 am 06:53 Mostly Clear 41 5 36 2.2 82 82 ENE 9 15 30.12 1020 10 16 0.00 0.00
8:53 am 08:53 Mostly Sunny 41 5 36 2.2 82 82 E 9 15 30.13 1020 10 16 0.00 0.00
9:53 am 09:53 Mostly Cloudy 43 6.1 37 2.8 80 80 E 9 15 30.14 1021 10 16 0.00 0.00
10:53 am 10:53 Cloudy 46 7.8 39 3.9 77 77 ESE 9 15 30.14 1021 10 16 0.00 0.00
11:53 am 11:53 Cloudy 48 8.9 39 3.9 71 71 ESE 8 13 30.13 1020 10 16 0.00 0.00
12:53 pm 12:53 Cloudy 50 10 38 3.3 63 63 SE 14 22 30.09 1019 10 16 0.00 0.00
1:53 pm 13:53 Cloudy 48 8.9 39 3.9 71 71 SSE 14 22 30.06 1018 10 16 0.00 0.00
2:42 pm 14:42 Cloudy 48 8.9 40 4.4 74 74 SE 10 17 30.04 1017 10 16 0.00 0.00
2:53 pm 14:53 Cloudy 47 8.3 40 4.4 77 77 SE 13 20 30.03 1017 10 16 0.00 0.00
3:53 pm 15:53 Cloudy with Haze 46 7.8 41 5 83 83 SE 12 19 30.01 1016 4 6 0.00 0.00
4:35 pm 16:35 Cloudy 47 8.3 41 5 80 80 ESE 13 20 30.00 1016 10 16 0.00 0.00
4:53 pm 16:53 Cloudy 46 7.8 41 5 83 83 ESE 12 19 30.00 1016 7 11 0.00 0.00
5:12 pm 17:12 Cloudy with Mist and Fog 46 7.8 42 5.6 86 86 SE 9 15 30.00 1016 6 10 0.00 0.00
5:53 pm 17:53 Cloudy with Mist and Fog 45 7.2 42 5.6 90 90 ESE 9 15 30.00 1016 3 4 0.00 0.00
6:27 pm 18:27 Cloudy with Mist and Fog 45 7.2 42 5.6 90 90 ESE 12 19 30.02 1017 2 3 0.00 0.00
6:51 pm 18:51 Cloudy with Mist and Fog 45 7 43 6 93 93 ESE 10 17 30.02 1017 3 5 0.00 0.00
6:53 pm 18:53 Cloudy with Mist and Fog 44 6.7 42 5.6 93 93 ESE 12 19 30.01 1016 3 5 0.00 0.00
7:00 pm 19:00 Cloudy with Mist and Fog 44 6.7 42 5.6 93 93 SE 9 15 30.01 1016 3 4 0.00 0.00
7:53 pm 19:53 Cloudy with Mist and Fog 44 6.7 43 6.1 96 96 E 7 11 30.02 1017 2 3 0.00 0.00
8:53 pm 20:53 Cloudy with Mist and Fog 44 6.7 42 5.6 93 93 E 9 15 30.00 1016 2 3 0.00 0.00
9:08 pm 21:08 Cloudy with Mist and Fog 44 6.7 42 5.6 93 93 E 10 17 30.01 1016 3 5 0.00 0.00
9:48 pm 21:48 Cloudy with Mist and Fog 45 7 43 6 93 93 E 10 17 30.00 1016 3 4 0.00 0.00
9:53 pm 21:53 Cloudy with Mist and Fog 44 6.7 42 5.6 93 93 E 10 17 29.99 1016 3 4 0.00 0.00
10:53 pm 22:53 Cloudy with Mist and Fog 43 6.1 42 5.6 97 97 E 13 20 29.98 1015 2 3 0.00 0.00
11:45 pm 23:45 Mostly Cloudy with Fog 43 6.1 42 5.6 97 97 ESE 13 20 29.97 1015 1 1 0.00 0.00
11:53 pm 23:53 Mostly Cloudy with Fog 43 6.1 42 5.6 97 97 ESE 10 17 29.95 1014 1 1 0.00 0.00

Powered by AerisWeather